Location: Brno
(49.2000°N, 16.6330°E)
Time: 19:45:52
(UTC+02:00)

ISS - Visible Passes

Search period start: 28 July 2015 00:00
Search period end: 07 August 2015 00:00
Orbit: 401 x 403 km, 51.6° (Epoch: 28 July)

Date Brightness Start Highest point End Pass type
(mag) Time Alt. Az. Time Alt. Az. Time Alt. Az.
28 Jul -1.4 00:53:45 23° ENE 00:53:45 23° ENE 00:55:08 10° ENE visible
28 Jul -2.6 02:26:21 19° WNW 02:28:26 53° N 02:31:40 10° ENE visible
28 Jul -3.3 04:01:47 10° WNW 04:05:04 87° NNE 04:08:21 10° ESE visible
29 Jul -2.7 01:35:11 55° NNW 01:35:22 56° N 01:38:36 10° ENE visible
29 Jul -3.0 03:08:46 10° WNW 03:12:01 67° NNE 03:15:17 10° E visible
30 Jul -1.4 00:43:57 23° ENE 00:43:57 23° ENE 00:45:23 10° ENE visible
30 Jul -2.7 02:16:32 18° WNW 02:18:46 56° N 02:22:00 10° E visible
30 Jul -3.3 03:52:01 10° WNW 03:55:14 58° SSW 03:58:26 10° SE visible
30 Jul -1.6 22:10:01 10° SSW 22:11:14 17° S 22:11:14 17° S visible
30 Jul0.023:52:59ENE23:52:59ENE23:44:10WSWvisible
31 Jul -2.5 01:25:37 50° NNE 01:25:37 50° NNE 01:28:31 10° E visible
31 Jul -3.5 02:58:36 10° WNW 03:01:52 86° SSW 03:05:08 10° ESE visible
31 Jul -2.0 04:35:26 10° W 04:37:57 20° SW 04:40:24 10° S visible
31 Jul -1.5 21:17:34 10° S 21:19:16 14° SE 21:21:02 10° ESE visible
31 Jul -3.5 22:51:58 10° WSW 22:55:12 64° SSE 22:56:48 26° E visible
01 Aug -1.1 00:28:26 10° W 00:36:29 - ENE 00:29:31 19° W visible
01 Aug -2.3 02:09:19 39° E 02:09:19 39° E 02:11:31 10° E visible
01 Aug -2.7 03:42:11 14° W 03:44:30 32° SSW 03:47:28 10° SSE visible
01 Aug -2.9 21:58:27 10° SW 22:01:31 40° SSE 22:04:36 10° ENE visible
01 Aug -3.0 23:34:36 10° W 23:37:50 64° NNW 23:38:56 36° ENE visible
02 Aug -0.5 01:11:13 10° WNW 01:11:30 12° WNW 01:11:30 12° WNW visible
02 Aug -2.2 21:05:01 10° SSW 21:07:44 25° SE 21:10:28 10° E visible
02 Aug -3.4 22:40:35 10° WSW 22:43:51 83° NNW 22:47:07 10° ENE visible
03 Aug -2.2 00:17:12 10° WNW 00:19:40 41° NW 00:19:40 41° NW visible
03 Aug -3.4 21:46:29 10° WSW 21:49:44 69° SSE 21:52:58 10° ENE visible
03 Aug -2.6 23:22:59 10° W 23:26:11 54° N 23:27:26 31° ENE visible
04 Aug -0.6 00:59:29 10° WNW 00:59:56 13° WNW 00:59:56 13° WNW visible
04 Aug -2.9 22:28:32 10° W 22:31:46 62° N 22:34:55 11° ENE visible
05 Aug -2.1 00:05:07 10° WNW 00:07:25 39° NW 00:07:25 39° NW visible
05 Aug -3.2 21:33:57 10° WSW 21:37:12 80° NNW 21:40:29 10° ENE visible
05 Aug -2.6 23:10:32 10° WNW 23:13:44 53° N 23:14:41 37° ENE visible
06 Aug -0.5 00:46:56 10° WNW 00:47:10 12° WNW 00:47:10 12° WNW visible
06 Aug -2.6 22:15:43 10° W 22:18:56 53° N 22:21:46 13° ENE visible
06 Aug -1.9 23:52:12 10° WNW 23:54:14 35° WNW 23:54:14 35° WNW visible
